Location: Newark
(10.9667°N, 4.8167°W)
Time: 17:17:54
(UTC+00:00)

Envisat - Visible Passes

Search period start: 07 December 2019 00:00
Search period end: 17 December 2019 00:00
Orbit: 764 x 766 km, 98.1° (Epoch: 07 December)

Date Brightness Start Highest point End Pass type
(mag) Time Alt. Az. Time Alt. Az. Time Alt. Az.
07 Dec 5.1 19:19:58 10° SSW 19:24:17 28° W 19:28:36 10° NW visible
08 Dec 3.1 18:42:29 10° S 18:47:34 81° WSW 18:52:37 10° NNW visible
09 Dec 6.1 19:47:17 10° SW 19:49:46 14° W 19:52:14 10° WNW visible
10 Dec 4.5 19:08:20 10° SSW 19:13:01 38° W 19:17:41 10° NNW visible
11 Dec 6.0 05:55:50 10° ENE 05:59:16 18° E 06:02:40 10° SE visible
11 Dec 2.9 18:31:16 10° SSE 18:36:19 75° ENE 18:41:22 10° N visible
12 Dec 5.7 19:35:01 10° SW 19:38:29 19° W 19:41:58 10° NW visible
13 Dec 3.9 18:56:49 10° S 19:01:45 52° WSW 19:06:40 10° NNW visible
14 Dec 6.3 05:45:37 10° ENE 05:47:58 13° E 05:50:19 10° SE visible
14 Dec 3.1 18:20:07 10° SSE 18:25:04 55° ENE 18:30:00 10° N visible
15 Dec 5.3 19:23:06 10° SSW 19:27:12 25° W 19:31:20 10° NW visible
16 Dec 3.3 18:45:26 10° S 18:50:29 72° WSW 18:55:32 10° NNW visible
